Vorticity
11 -6 12 6 6 1 4 7 9 5 4 -5 4 7 25 15 12 10 21 0 20 -19 24 22 -7 23 8 15 6 16 -5 1 30 2 6 7 12 14 13 16 19 12 14
8 1 8 -1 5 3 4 4 10 3 1 4 -1 1 9 17 13 11 15 -2 2 30 -4 22 4 13 5 15 -1 6 3 27 14 4 9 10 14 16 16 15 11 12 8
8 4 4 1 1 1 4 4 2 7 5 3 2 3 6 17 14 12 12 9 30 -2 11 11 8 13 5 4 4 -4 3 26 3 7 9 12 15 15 13 12 -3 15 9
12 2 1 3 4 7 3 5 4 5 5 6 4 2 9 11 10 12 8 24 10 -9 19 6 6 13 7 11 6 6 32 15 9 9 9 14 17 13 11 6 13 7 7
13 8 3 6 11 11 13 13 6 4 8 6 8 3 9 5 10 8 16 12 17 13 10 11 14 18 0 7 10 -4 33 8 9 10 12 15 14 15 6 12 6 4 7
17 21 15 14 12 4 22 19 5 7 2 7 2 3 5 7 8 14 1 16 3 12 11 10 5 4 -7 1 14 19 21 11 9 9 11 13 16 16 2 7 7 5 6
12 11 12 12 20 17 12 11 15 9 0 1 1 1 9 2 10 6 14 2 10 -8 23 12 -21 28 -6 7 -0 33 12 6 9 12 11 13 15 14 6 5 2 6 7
6 5 3 5 -1 2 5 9 14 10 7 6 4 0 1 17 11 15 2 1 2 7 20 -4 4 7 12 -18 17 26 12 9 11 11 11 14 10 11 12 19 9 7 11
2 6 5 -2 1 2 4 6 6 10 7 7 -7 17 10 17 9 8 3 13 7 28 -29 28 12 16 6 17 18 17 10 9 11 10 12 11 11 11 8 4 5 11 11
9 4 2 5 8 11 11 19 10 7 9 14 19 9 12 9 17 47 11 34 29 13 4 35 21 19 19 9 21 17 10 10 10 12 13 13 13 11 7 7 12 14 9
11 11 5 10 11 8 7 6 9 13 14 11 3 5 -13 6 27 3 33 13 21 38 23 -4 2 14 15 14 16 14 8 10 12 12 13 14 11 11 12 18 20 11 6
12 11 11 10 16 15 13 17 18 18 16 14 23 31 22 20 15 39 14 43 18 0 -3 17 17 16 15 18 17 7 11 10 12 12 12 10 13 16 17 15 10 4 17
13 14 13 13 15 16 19 17 17 20 23 25 30 15 9 17 29 34 24 6 8 20 17 12 12 15 18 24 9 9 11 12 11 11 11 10 13 16 13 9 9 9 23
21 24 26 24 21 18 18 22 23 25 23 23 18 19 47 42 9 -6 1 17 16 12 11 12 15 15 30 14 9 10 12 11 10 13 16 13 17 10 10 12 9 18 21
10 10 13 16 20 22 14 20 17 19 19 18 43 27 8 14 4 19 8 7 4 8 9 14 20 32 24 11 8 12 11 11 11 15 13 14 11 9 10 15 10 23 18
11 11 11 8 15 24 14 16 36 -0 2 -20 8 -6 2 10 9 7 9 13 17 9 14 28 27 19 7 9 10 13 12 13 15 12 13 11 9 6 11 15 13 22 17
18 18 17 21 18 9 9 -1 1 7 17 18 10 6 4 -1 1 6 8 14 20 18 33 11 11 13 10 7 15 15 16 13 11 6 9 13 6 7 11 14 13 18 15
13 12 12 13 12 13 11 13 12 9 8 6 8 9 11 13 16 22 24 21 27 16 1 13 14 9 12 12 14 16 16 16 13 11 10 12 10 9 10 15 11 15 13
9 11 13 13 14 15 17 18 20 20 21 23 27 29 29 26 25 27 17 26 2 6 18 14 10 9 10 13 12 15 16 15 12 12 12 12 13 8 12 16 9 10 12
16 15 15 14 13 12 12 12 12 11 10 10 12 18 19 17 16 18 24 4 22 11 13 11 8 14 9 7 9 12 15 15 16 15 13 16 14 10 11 11 14 7 9
7 7 6 5 6 7 7 7 7 8 9 10 14 13 11 12 11 13 25 -1 14 1 15 14 12 5 -0 20 10 12 12 13 13 15 15 13 13 13 12 14 17 10 8
7 8 8 9 8 7 7 6 6 6 7 7 7 6 9 13 15 17 18 15 -2 17 12 6 10 10 10 10 10 7 10 12 13 12 13 16 15 14 13 13 13 16 8
9 9 10 10 9 9 9 8 7 6 6 6 6 5 6 8 4 13 16 16 14 13 10 7 8 15 8 13 14 12 8 9 12 12 12 14 16 15 15 14 15 15 17
10 10 9 9 9 10 11 11 11 10 9 7 5 5 6 5 5 10 4 13 15 15 9 6 10 8 8 10 11 10 12 10 12 12 11 12 16 16 14 10 13 12 19
10 12 13 14 15 15 14 14 14 14 14 15 13 13 12 7 4 6 6 7 4 10 14 18 20 17 15 13 15 15 15 12 12 12 12 11 12 16 17 13 12 10 15
19 20 21 22 23 24 24 23 22 20 20 20 20 20 19 16 16 13 9 7 7 7 4 10 13 13 13 13 16 14 9 12 14 13 12 11 11 12 15 17 13 12 15
Height
3086 3085 3084 3084 3083 3081 3080 3079 3078 3077 3075 3073 3071 3068 3064 3061 3058 3056 3054 3052 3050 3048 3048 3047 3046 3044 3046 3047 3045 3042 3043 3037 3035 3033 3032 3030 3025 3019 3016 3013 3010 3007 3006
3075 3076 3076 3076 3075 3074 3073 3072 3070 3069 3067 3065 3062 3058 3056 3053 3050 3047 3044 3043 3041 3041 3039 3038 3037 3037 3037 3034 3034 3033 3029 3028 3027 3027 3024 3021 3016 3011 3009 3005 3003 3001 3000
3064 3064 3066 3066 3066 3065 3065 3064 3062 3060 3058 3055 3052 3049 3047 3044 3041 3038 3036 3034 3033 3033 3032 3029 3028 3027 3028 3025 3023 3021 3018 3017 3017 3016 3014 3011 3008 3005 3002 3000 2998 2997 2995
3053 3054 3055 3057 3056 3056 3054 3053 3052 3050 3047 3045 3042 3040 3038 3035 3032 3030 3028 3026 3024 3023 3020 3018 3017 3016 3015 3013 3011 3012 3010 3007 3007 3005 3003 3002 2998 2993 2993 2992 2990 2987 2987
3042 3043 3045 3046 3045 3043 3041 3041 3041 3040 3037 3035 3033 3031 3028 3025 3023 3021 3018 3016 3013 3012 3010 3009 3008 3005 3003 3002 3001 3000 2998 2996 2997 2997 2994 2992 2989 2987 2985 2984 2982 2981 2982
3037 3036 3036 3035 3033 3031 3029 3028 3028 3028 3026 3024 3022 3020 3017 3014 3012 3009 3006 3003 3001 3000 2999 2998 2995 2993 2991 2989 2989 2988 2988 2988 2988 2986 2983 2982 2981 2978 2977 2976 2973 2973 2974
3030 3029 3028 3027 3026 3024 3021 3020 3019 3018 3015 3014 3011 3008 3006 3003 3001 2997 2994 2992 2990 2988 2985 2984 2981 2979 2979 2978 2978 2976 2977 2977 2977 2976 2974 2974 2970 2968 2969 2968 2967 2966 2966
3022 3021 3020 3019 3017 3015 3013 3012 3011 3008 3005 3001 2998 2996 2993 2990 2987 2984 2982 2979 2976 2973 2969 2968 2966 2964 2963 2966 2966 2964 2965 2966 2967 2965 2965 2965 2962 2963 2960 2960 2961 2960 2959
3015 3013 3011 3008 3006 3003 3001 2999 2997 2995 2992 2989 2985 2982 2979 2976 2972 2969 2968 2966 2961 2958 2954 2953 2951 2950 2951 2955 2955 2955 2953 2955 2956 2956 2956 2955 2955 2954 2954 2954 2953 2954 2954
3004 3002 2999 2996 2993 2990 2987 2984 2981 2978 2975 2972 2970 2968 2965 2965 2959 2956 2951 2950 2949 2946 2944 2939 2939 2939 2938 2941 2944 2945 2945 2948 2946 2948 2946 2946 2946 2946 2946 2947 2947 2948 2947
2992 2989 2986 2982 2979 2976 2973 2969 2965 2962 2960 2957 2955 2952 2950 2947 2944 2943 2940 2935 2935 2933 2931 2930 2931 2933 2929 2931 2933 2934 2940 2940 2940 2938 2938 2940 2938 2939 2939 2939 2941 2941 2941
2977 2973 2969 2966 2963 2961 2958 2954 2951 2948 2946 2944 2940 2938 2936 2933 2933 2929 2924 2926 2925 2924 2924 2922 2922 2921 2921 2922 2924 2927 2931 2931 2932 2931 2930 2931 2932 2932 2933 2933 2936 2936 2934
2965 2961 2956 2953 2950 2946 2943 2940 2937 2933 2930 2928 2927 2924 2920 2918 2917 2916 2916 2917 2916 2916 2915 2914 2911 2913 2914 2913 2916 2921 2921 2922 2923 2927 2925 2924 2926 2928 2929 2929 2931 2930 2929
2953 2950 2947 2943 2939 2935 2932 2929 2926 2923 2920 2919 2917 2914 2912 2910 2908 2908 2908 2907 2907 2908 2908 2907 2907 2906 2907 2907 2911 2913 2915 2914 2915 2918 2919 2920 2921 2923 2924 2923 2925 2925 2926
2943 2940 2936 2933 2930 2926 2924 2921 2918 2915 2914 2913 2912 2910 2908 2907 2906 2904 2903 2903 2903 2902 2899 2898 2898 2897 2901 2903 2905 2907 2910 2908 2909 2912 2914 2914 2916 2918 2920 2921 2921 2922 2923
2936 2931 2928 2926 2923 2920 2918 2917 2915 2914 2912 2909 2907 2905 2903 2901 2900 2899 2897 2896 2894 2893 2891 2892 2892 2893 2895 2895 2899 2902 2903 2904 2904 2907 2909 2911 2913 2913 2916 2917 2918 2919 2921
2926 2922 2920 2919 2917 2915 2914 2913 2911 2909 2906 2903 2900 2898 2896 2896 2894 2892 2890 2890 2888 2888 2887 2888 2888 2889 2891 2891 2894 2897 2899 2899 2900 2902 2904 2906 2908 2910 2913 2914 2916 2918 2919
2921 2918 2915 2914 2911 2909 2907 2906 2904 2902 2900 2897 2894 2892 2890 2887 2885 2884 2882 2883 2883 2883 2883 2884 2884 2886 2887 2888 2890 2891 2892 2894 2896 2898 2900 2901 2904 2907 2910 2912 2914 2916 2918
2916 2913 2910 2908 2905 2903 2901 2899 2896 2895 2891 2888 2886 2883 2882 2879 2877 2877 2878 2879 2879 2879 2879 2880 2881 2883 2885 2885 2886 2887 2888 2889 2892 2893 2895 2897 2900 2904 2907 2909 2912 2914 2917
2912 2908 2906 2903 2900 2898 2896 2893 2891 2889 2886 2884 2882 2879 2877 2876 2875 2874 2874 2875 2875 2876 2876 2877 2879 2880 2882 2882 2883 2884 2884 2885 2887 2888 2890 2893 2896 2900 2903 2906 2909 2912 2915
2907 2904 2901 2898 2896 2894 2891 2889 2888 2885 2883 2881 2879 2877 2876 2874 2873 2872 2871 2872 2872 2873 2874 2874 2875 2877 2877 2878 2879 2880 2881 2882 2884 2884 2886 2889 2893 2896 2899 2902 2905 2909 2912
2901 2898 2895 2892 2890 2888 2885 2883 2882 2880 2878 2877 2875 2874 2872 2871 2869 2869 2868 2868 2869 2870 2870 2871 2872 2873 2874 2875 2875 2877 2878 2879 2880 2881 2883 2886 2889 2892 2895 2899 2902 2905 2909
2892 2889 2887 2884 2881 2879 2877 2875 2873 2872 2870 2869 2869 2868 2868 2867 2866 2865 2864 2864 2865 2866 2866 2867 2868 2869 2870 2871 2872 2873 2875 2876 2877 2878 2880 2882 2885 2888 2891 2895 2898 2901 2905
2883 2880 2877 2874 2871 2868 2866 2864 2863 2861 2860 2860 2861 2861 2861 2861 2861 2861 2861 2860 2860 2861 2861 2862 2863 2864 2865 2866 2868 2869 2870 2872 2874 2876 2877 2879 2881 2884 2888 2891 2895 2898 2901
2873 2869 2865 2861 2858 2855 2853 2851 2850 2849 2849 2849 2849 2850 2852 2853 2854 2855 2855 2855 2856 2856 2856 2857 2857 2858 2860 2861 2862 2864 2865 2868 2870 2872 2874 2876 2878 2881 2884 2887 2891 2894 2897
2861 2857 2852 2849 2845 2843 2840 2839 2837 2836 2836 2837 2837 2839 2841 2843 2845 2845 2847 2849 2850 2851 2852 2853 2853 2854 2856 2857 2858 2859 2861 2864 2866 2868 2871 2873 2875 2877 2880 2883 2886 2889 2893